Tracking 29090 objects as of 15-Jul-2024
HD Live streaming from Space Station
objects crossing your sky now

JUPITER 3 (ECHOSTAR 24)

Track JUPITER 3 (ECHOSTAR 24) now!
JUPITER 3 (ECHOSTAR 24) is classified as:


NORAD ID: 57479
Int'l Code: 2023-108A
Perigee: 35,788.6 km
Apogee: 35,799.9 km
Inclination: 0.0 °
Period: 1,436.1 minutes
Semi major axis: 42165 km
RCS: Unknown
Launch date: July 29, 2023
Source: United States (US)
Launch site: AIR FORCE EASTERN TEST RANGE (AFETR)
Your satellite tracking list
Your tracking list is empty




NASA's NSSDC Master Catalog

Two Line Element Set (TLE):
1 57479U 23108A   24196.45123190 -.00000133  00000-0  00000+0 0  9990
2 57479   0.0230  51.4321 0001346  54.5616 254.0212  1.00270015  3607
Source of the keplerian elements: AFSPC